Year,Month,Day,Hour,Minute,Value (Times are PST for barometer in hPa)
2013,09,28,00,00,1009.19
2013,09,28,00,01,1009.18
2013,09,28,00,02,1009.18
2013,09,28,00,03,1009.18
2013,09,28,00,04,1009.18
2013,09,28,00,05,1009.18
2013,09,28,00,06,1009.18
2013,09,28,00,07,1009.18
2013,09,28,00,08,1009.18
2013,09,28,00,09,1009.18
2013,09,28,00,10,1009.18
2013,09,28,00,11,1009.18
2013,09,28,00,12,1009.18
2013,09,28,00,13,1009.18
2013,09,28,00,14,1009.18
2013,09,28,00,15,1008.74
2013,09,28,00,16,1008.74
2013,09,28,00,17,1008.74
2013,09,28,00,18,1008.74
2013,09,28,00,19,1008.74
2013,09,28,00,20,1008.74
2013,09,28,00,21,1008.74
2013,09,28,00,22,1008.74
2013,09,28,00,23,1008.74
2013,09,28,00,24,1008.74
2013,09,28,00,25,1008.74
2013,09,28,00,26,1008.74
2013,09,28,00,27,1008.74
2013,09,28,00,28,1008.74
2013,09,28,00,29,1008.74
2013,09,28,00,30,1008.77
2013,09,28,00,31,1008.77
2013,09,28,00,32,1008.77
2013,09,28,00,33,1008.77
2013,09,28,00,34,1008.77
2013,09,28,00,35,1008.77
2013,09,28,00,36,1008.77
2013,09,28,00,37,1008.77
2013,09,28,00,38,1008.77
2013,09,28,00,39,1008.77
2013,09,28,00,40,1008.77
2013,09,28,00,41,1008.77
2013,09,28,00,42,1008.77
2013,09,28,00,43,1008.77
2013,09,28,00,44,1008.77
2013,09,28,00,45,1008.64
2013,09,28,00,46,1008.64
2013,09,28,00,47,1008.64
2013,09,28,00,48,1008.64
2013,09,28,00,49,1008.64
2013,09,28,00,50,1008.64
2013,09,28,00,51,1008.64
2013,09,28,00,52,1008.64
2013,09,28,00,53,1008.64
2013,09,28,00,54,1008.64
2013,09,28,00,55,1008.64
2013,09,28,00,56,1008.64
2013,09,28,00,57,1008.64
2013,09,28,00,58,1008.64
2013,09,28,00,59,1008.64
2013,09,28,01,00,1008.16
2013,09,28,01,01,1008.16
2013,09,28,01,02,1008.16
2013,09,28,01,03,1008.16
2013,09,28,01,04,1008.16
2013,09,28,01,05,1008.16
2013,09,28,01,06,1008.16
2013,09,28,01,07,1008.16
2013,09,28,01,08,1008.16
2013,09,28,01,09,1008.16
2013,09,28,01,10,1008.16
2013,09,28,01,11,1008.16
2013,09,28,01,12,1008.16
2013,09,28,01,13,1008.16
2013,09,28,01,14,1008.16
2013,09,28,01,15,1008.09
2013,09,28,01,16,1008.09
2013,09,28,01,17,1008.09
2013,09,28,01,18,1008.09
2013,09,28,01,19,1008.09
2013,09,28,01,20,1008.09
2013,09,28,01,21,1008.09
2013,09,28,01,22,1008.09
2013,09,28,01,23,1008.09
2013,09,28,01,24,1008.09
2013,09,28,01,25,1008.09
2013,09,28,01,26,1008.09
2013,09,28,01,27,1008.09
2013,09,28,01,28,1008.09
2013,09,28,01,29,1008.09
2013,09,28,01,30,1007.90
2013,09,28,01,31,1007.89
2013,09,28,01,32,1007.89
2013,09,28,01,33,1007.89
2013,09,28,01,34,1007.89
2013,09,28,01,35,1007.89
2013,09,28,01,36,1007.89
2013,09,28,01,37,1007.89
2013,09,28,01,38,1007.89
2013,09,28,01,39,1007.89
2013,09,28,01,40,1007.89
2013,09,28,01,41,1007.89
2013,09,28,01,42,1007.89
2013,09,28,01,43,1007.89
2013,09,28,01,44,1007.89
2013,09,28,01,45,1007.62
2013,09,28,01,46,1007.62
2013,09,28,01,47,1007.62
2013,09,28,01,48,1007.62
2013,09,28,01,49,1007.62
2013,09,28,01,50,1007.62
2013,09,28,01,51,1007.62
2013,09,28,01,52,1007.62
2013,09,28,01,53,1007.62
2013,09,28,01,54,1007.62
2013,09,28,01,55,1007.62
2013,09,28,01,56,1007.62
2013,09,28,01,57,1007.62
2013,09,28,01,58,1007.62
2013,09,28,01,59,1007.62
2013,09,28,02,00,1007.55
2013,09,28,02,01,1007.55
2013,09,28,02,02,1007.55
2013,09,28,02,03,1007.55
2013,09,28,02,04,1007.55
2013,09,28,02,05,1007.55
2013,09,28,02,06,1007.55
2013,09,28,02,07,1007.55
2013,09,28,02,08,1007.55
2013,09,28,02,09,1007.55
2013,09,28,02,10,1007.55
2013,09,28,02,11,1007.55
2013,09,28,02,12,1007.55
2013,09,28,02,13,1007.55
2013,09,28,02,14,1007.55
2013,09,28,02,15,1007.17
2013,09,28,02,16,1007.15
2013,09,28,02,17,1007.15
2013,09,28,02,18,1007.15
2013,09,28,02,19,1007.15
2013,09,28,02,20,1007.15
2013,09,28,02,21,1007.15
2013,09,28,02,22,1007.15
2013,09,28,02,23,1007.15
2013,09,28,02,24,1007.15
2013,09,28,02,25,1007.15
2013,09,28,02,26,1007.15
2013,09,28,02,27,1007.15
2013,09,28,02,28,1007.15
2013,09,28,02,29,1007.15
2013,09,28,02,30,1007.08
2013,09,28,02,31,1007.08
2013,09,28,02,32,1007.08
2013,09,28,02,33,1007.08
2013,09,28,02,34,1007.08
2013,09,28,02,35,1007.08
2013,09,28,02,36,1007.08
2013,09,28,02,37,1007.08
2013,09,28,02,38,1007.08
2013,09,28,02,39,1007.08
2013,09,28,02,40,1007.08
2013,09,28,02,41,1007.08
2013,09,28,02,42,1007.08
2013,09,28,02,43,1007.08
2013,09,28,02,44,1007.08
2013,09,28,02,45,1006.67
2013,09,28,02,46,1006.67
2013,09,28,02,47,1006.67
2013,09,28,02,48,1006.67
2013,09,28,02,49,1006.67
2013,09,28,02,50,1006.67
2013,09,28,02,51,1006.67
2013,09,28,02,52,1006.67
2013,09,28,02,53,1006.67
2013,09,28,02,54,1006.67
2013,09,28,02,55,1006.67
2013,09,28,02,56,1006.67
2013,09,28,02,57,1006.67
2013,09,28,02,58,1006.67
2013,09,28,02,59,1006.67
2013,09,28,03,00,1006.20
2013,09,28,03,01,1006.20
2013,09,28,03,02,1006.20
2013,09,28,03,03,1006.20
2013,09,28,03,04,1006.20
2013,09,28,03,05,1006.20
2013,09,28,03,06,1006.20
2013,09,28,03,07,1006.20
2013,09,28,03,08,1006.20
2013,09,28,03,09,1006.20
2013,09,28,03,10,1006.20
2013,09,28,03,11,1006.20
2013,09,28,03,12,1006.20
2013,09,28,03,13,1006.20
2013,09,28,03,14,1006.20
2013,09,28,03,15,1005.86
2013,09,28,03,16,1005.86
2013,09,28,03,17,1005.86
2013,09,28,03,18,1005.86
2013,09,28,03,19,1005.86
2013,09,28,03,20,1005.86
2013,09,28,03,21,1005.86
2013,09,28,03,22,1005.86
2013,09,28,03,23,1005.86
2013,09,28,03,24,1005.86
2013,09,28,03,25,1005.86
2013,09,28,03,26,1005.86
2013,09,28,03,27,1005.86
2013,09,28,03,28,1005.86
2013,09,28,03,29,1005.86
2013,09,28,03,30,1005.42
2013,09,28,03,31,1005.42
2013,09,28,03,32,1005.42
2013,09,28,03,33,1005.42
2013,09,28,03,34,1005.42
2013,09,28,03,35,1005.42
2013,09,28,03,36,1005.42
2013,09,28,03,37,1005.42
2013,09,28,03,38,1005.42
2013,09,28,03,39,1005.42
2013,09,28,03,40,1005.42
2013,09,28,03,41,1005.42
2013,09,28,03,42,1005.42
2013,09,28,03,43,1005.42
2013,09,28,03,44,1005.42
2013,09,28,03,45,1004.95
2013,09,28,03,46,1004.95
2013,09,28,03,47,1004.95
2013,09,28,03,48,1004.95
2013,09,28,03,49,1004.95
2013,09,28,03,50,1004.95
2013,09,28,03,51,1004.95
2013,09,28,03,52,1004.95
2013,09,28,03,53,1004.95
2013,09,28,03,54,1004.95
2013,09,28,03,55,1004.95
2013,09,28,03,56,1004.95
2013,09,28,03,57,1004.95
2013,09,28,03,58,1004.95
2013,09,28,03,59,1004.95
2013,09,28,04,00,1004.95
2013,09,28,04,01,1004.95
2013,09,28,04,02,1004.95
2013,09,28,04,03,1004.95
2013,09,28,04,04,1004.95
2013,09,28,04,05,1004.95
2013,09,28,04,06,1004.95
2013,09,28,04,07,1004.95
2013,09,28,04,08,1004.95
2013,09,28,04,09,1004.95
2013,09,28,04,10,1004.95
2013,09,28,04,11,1004.95
2013,09,28,04,12,1004.95
2013,09,28,04,13,1004.95
2013,09,28,04,14,1004.95
2013,09,28,04,15,1004.75
2013,09,28,04,16,1004.74
2013,09,28,04,17,1004.74
2013,09,28,04,18,1004.74
2013,09,28,04,19,1004.74
2013,09,28,04,20,1004.74
2013,09,28,04,21,1004.74
2013,09,28,04,22,1004.74
2013,09,28,04,23,1004.74
2013,09,28,04,24,1004.74
2013,09,28,04,25,1004.74
2013,09,28,04,26,1004.74
2013,09,28,04,27,1004.74
2013,09,28,04,28,1004.74
2013,09,28,04,29,1004.74
2013,09,28,04,30,1004.46
2013,09,28,04,31,1004.44
2013,09,28,04,32,1004.44
2013,09,28,04,33,1004.44
2013,09,28,04,34,1004.44
2013,09,28,04,35,1004.44
2013,09,28,04,36,1004.44
2013,09,28,04,37,1004.44
2013,09,28,04,38,1004.44
2013,09,28,04,39,1004.44
2013,09,28,04,40,1004.44
2013,09,28,04,41,1004.44
2013,09,28,04,42,1004.44
2013,09,28,04,43,1004.44
2013,09,28,04,44,1004.44
2013,09,28,04,45,1003.96
2013,09,28,04,46,1003.96
2013,09,28,04,47,1003.96
2013,09,28,04,48,1003.96
2013,09,28,04,49,1003.96
2013,09,28,04,50,1003.96
2013,09,28,04,51,1003.96
2013,09,28,04,52,1003.96
2013,09,28,04,53,1003.96
2013,09,28,04,54,1003.96
2013,09,28,04,55,1003.96
2013,09,28,04,56,1003.96
2013,09,28,04,57,1003.96
2013,09,28,04,58,1003.96
2013,09,28,04,59,1003.96
2013,09,28,05,00,1003.84
2013,09,28,05,01,1003.83
2013,09,28,05,02,1003.83
2013,09,28,05,03,1003.83
2013,09,28,05,04,1003.83
2013,09,28,05,05,1003.83
2013,09,28,05,06,1003.83
2013,09,28,05,07,1003.83
2013,09,28,05,08,1003.83
2013,09,28,05,09,1003.83
2013,09,28,05,10,1003.83
2013,09,28,05,11,1003.83
2013,09,28,05,12,1003.83
2013,09,28,05,13,1003.83
2013,09,28,05,14,1003.83
2013,09,28,05,15,1003.35
2013,09,28,05,16,1003.35
2013,09,28,05,17,1003.35
2013,09,28,05,18,1003.35
2013,09,28,05,19,1003.35
2013,09,28,05,20,1003.35
2013,09,28,05,21,1003.35
2013,09,28,05,22,1003.35
2013,09,28,05,23,1003.35
2013,09,28,05,24,1003.35
2013,09,28,05,25,1003.35
2013,09,28,05,26,1003.35
2013,09,28,05,27,1003.35
2013,09,28,05,28,1003.35
2013,09,28,05,29,1003.35
2013,09,28,05,30,1002.95
2013,09,28,05,31,1002.95
2013,09,28,05,32,1002.95
2013,09,28,05,33,1002.95
2013,09,28,05,34,1002.95
2013,09,28,05,35,1002.95
2013,09,28,05,36,1002.95
2013,09,28,05,37,1002.95
2013,09,28,05,38,1002.95
2013,09,28,05,39,1002.95
2013,09,28,05,40,1002.95
2013,09,28,05,41,1002.95
2013,09,28,05,42,1002.95
2013,09,28,05,43,1002.95
2013,09,28,05,44,1002.95
2013,09,28,05,45,1002.71
2013,09,28,05,46,1002.71
2013,09,28,05,47,1002.71
2013,09,28,05,48,1002.71
2013,09,28,05,49,1002.71
2013,09,28,05,50,1002.71
2013,09,28,05,51,1002.71
2013,09,28,05,52,1002.71
2013,09,28,05,53,1002.71
2013,09,28,05,54,1002.71
2013,09,28,05,55,1002.71
2013,09,28,05,56,1002.71
2013,09,28,05,57,1002.71
2013,09,28,05,58,1002.71
2013,09,28,05,59,1002.71
2013,09,28,06,00,1002.37
2013,09,28,06,01,1002.37
2013,09,28,06,02,1002.37
2013,09,28,06,03,1002.37
2013,09,28,06,04,1002.37
2013,09,28,06,05,1002.37
2013,09,28,06,06,1002.37
2013,09,28,06,07,1002.37
2013,09,28,06,08,1002.37
2013,09,28,06,09,1002.37
2013,09,28,06,10,1002.37
2013,09,28,06,11,1002.37
2013,09,28,06,12,1002.37
2013,09,28,06,13,1002.37
2013,09,28,06,14,1002.37
2013,09,28,06,15,1002.10
2013,09,28,06,16,1002.10
2013,09,28,06,17,1002.10
2013,09,28,06,18,1002.10
2013,09,28,06,19,1002.10
2013,09,28,06,20,1002.10
2013,09,28,06,21,1002.10
2013,09,28,06,22,1002.10
2013,09,28,06,23,1002.10
2013,09,28,06,24,1002.10
2013,09,28,06,25,1002.10
2013,09,28,06,26,1002.10
2013,09,28,06,27,1002.10
2013,09,28,06,28,1002.10
2013,09,28,06,29,1002.10
2013,09,28,06,30,1001.76
2013,09,28,06,31,1001.76
2013,09,28,06,32,1001.76
2013,09,28,06,33,1001.76
2013,09,28,06,34,1001.76
2013,09,28,06,35,1001.76
2013,09,28,06,36,1001.76
2013,09,28,06,37,1001.76
2013,09,28,06,38,1001.76
2013,09,28,06,39,1001.76
2013,09,28,06,40,1001.76
2013,09,28,06,41,1001.76
2013,09,28,06,42,1001.76
2013,09,28,06,43,1001.76
2013,09,28,06,44,1001.76
2013,09,28,06,45,1001.31
2013,09,28,06,46,1001.29
2013,09,28,06,47,1001.29
2013,09,28,06,48,1001.29
2013,09,28,06,49,1001.29
2013,09,28,06,50,1001.29
2013,09,28,06,51,1001.29
2013,09,28,06,52,1001.29
2013,09,28,06,53,1001.29
2013,09,28,06,54,1001.29
2013,09,28,06,55,1001.29
2013,09,28,06,56,1001.29
2013,09,28,06,57,1001.29
2013,09,28,06,58,1001.29
2013,09,28,06,59,1001.29
2013,09,28,07,00,1000.97
2013,09,28,07,01,1000.95
2013,09,28,07,02,1000.95
2013,09,28,07,03,1000.95
2013,09,28,07,04,1000.95
2013,09,28,07,05,1000.95
2013,09,28,07,06,1000.95
2013,09,28,07,07,1000.95
2013,09,28,07,08,1000.95
2013,09,28,07,09,1000.95
2013,09,28,07,10,1000.95
2013,09,28,07,11,1000.95
2013,09,28,07,12,1000.95
2013,09,28,07,13,1000.95
2013,09,28,07,14,1000.95
2013,09,28,07,15,1000.34
2013,09,28,07,16,1000.31
2013,09,28,07,17,1000.31
2013,09,28,07,18,1000.31
2013,09,28,07,19,1000.31
2013,09,28,07,20,1000.31
2013,09,28,07,21,1000.31
2013,09,28,07,22,1000.31
2013,09,28,07,23,1000.31
2013,09,28,07,24,1000.31
2013,09,28,07,25,1000.31
2013,09,28,07,26,1000.31
2013,09,28,07,27,1000.31
2013,09,28,07,28,1000.31
2013,09,28,07,29,1000.31
2013,09,28,07,30,999.89
2013,09,28,07,31,999.87
2013,09,28,07,32,999.87
2013,09,28,07,33,999.87
2013,09,28,07,34,999.87
2013,09,28,07,35,999.87
2013,09,28,07,36,999.87
2013,09,28,07,37,999.87
2013,09,28,07,38,999.87
2013,09,28,07,39,999.87
2013,09,28,07,40,999.87
2013,09,28,07,41,999.87
2013,09,28,07,42,999.87
2013,09,28,07,43,999.87
2013,09,28,07,44,999.87
2013,09,28,07,45,999.48
2013,09,28,07,46,999.46
2013,09,28,07,47,999.46
2013,09,28,07,48,999.46
2013,09,28,07,49,999.46
2013,09,28,07,50,999.46
2013,09,28,07,51,999.46
2013,09,28,07,52,999.46
2013,09,28,07,53,999.46
2013,09,28,07,54,999.46
2013,09,28,07,55,999.46
2013,09,28,07,56,999.46
2013,09,28,07,57,999.46
2013,09,28,07,58,999.46
2013,09,28,07,59,999.46
2013,09,28,08,00,999.01
2013,09,28,08,01,998.99
2013,09,28,08,02,998.99
2013,09,28,08,03,998.99
2013,09,28,08,04,998.99
2013,09,28,08,05,998.99
2013,09,28,08,06,998.99
2013,09,28,08,07,998.99
2013,09,28,08,08,998.99
2013,09,28,08,09,998.99
2013,09,28,08,10,998.99
2013,09,28,08,11,998.99
2013,09,28,08,12,998.99
2013,09,28,08,13,998.99
2013,09,28,08,14,998.99
2013,09,28,08,15,998.92
2013,09,28,08,16,998.92
2013,09,28,08,17,998.92
2013,09,28,08,18,998.92
2013,09,28,08,19,998.92
2013,09,28,08,20,998.92
2013,09,28,08,21,998.92
2013,09,28,08,22,998.92
2013,09,28,08,23,998.92
2013,09,28,08,24,998.92
2013,09,28,08,25,998.92
2013,09,28,08,26,998.92
2013,09,28,08,27,998.92
2013,09,28,08,28,998.92
2013,09,28,08,29,998.92
2013,09,28,08,30,998.10
2013,09,28,08,31,998.10
2013,09,28,08,32,998.10
2013,09,28,08,33,998.10
2013,09,28,08,34,998.10
2013,09,28,08,35,998.10
2013,09,28,08,36,998.10
2013,09,28,08,37,998.10
2013,09,28,08,38,998.10
2013,09,28,08,39,998.10
2013,09,28,08,40,998.10
2013,09,28,08,41,998.10
2013,09,28,08,42,998.10
2013,09,28,08,43,998.10
2013,09,28,08,44,998.10
2013,09,28,08,45,998.04
2013,09,28,08,46,998.04
2013,09,28,08,47,998.04
2013,09,28,08,48,998.04
2013,09,28,08,49,998.04
2013,09,28,08,50,998.04
2013,09,28,08,51,998.04
2013,09,28,08,52,998.04
2013,09,28,08,53,998.04
2013,09,28,08,54,998.04
2013,09,28,08,55,998.04
2013,09,28,08,56,998.04
2013,09,28,08,57,998.04
2013,09,28,08,58,998.04
2013,09,28,08,59,998.04
2013,09,28,09,00,997.55
2013,09,28,09,01,997.53
2013,09,28,09,02,997.53
2013,09,28,09,03,997.53
2013,09,28,09,04,997.53
2013,09,28,09,05,997.53
2013,09,28,09,06,997.53
2013,09,28,09,07,997.53
2013,09,28,09,08,997.53
2013,09,28,09,09,997.53
2013,09,28,09,10,997.53
2013,09,28,09,11,997.53
2013,09,28,09,12,997.53
2013,09,28,09,13,997.53
2013,09,28,09,14,997.53
2013,09,28,09,15,997.56
2013,09,28,09,16,997.56
2013,09,28,09,17,997.56
2013,09,28,09,18,997.56
2013,09,28,09,19,997.56
2013,09,28,09,20,997.56
2013,09,28,09,21,997.56
2013,09,28,09,22,997.56
2013,09,28,09,23,997.56
2013,09,28,09,24,997.56
2013,09,28,09,25,997.56
2013,09,28,09,26,997.56
2013,09,28,09,27,997.56
2013,09,28,09,28,997.56
2013,09,28,09,29,997.56
2013,09,28,09,30,997.53
2013,09,28,09,31,997.53
2013,09,28,09,32,997.53
2013,09,28,09,33,997.53
2013,09,28,09,34,997.53
2013,09,28,09,35,997.53
2013,09,28,09,36,997.53
2013,09,28,09,37,997.53
2013,09,28,09,38,997.53
2013,09,28,09,39,997.53
2013,09,28,09,40,997.53
2013,09,28,09,41,997.53
2013,09,28,09,42,997.53
2013,09,28,09,43,997.53
2013,09,28,09,44,997.53
2013,09,28,09,45,997.14
2013,09,28,09,46,997.12
2013,09,28,09,47,997.12
2013,09,28,09,48,997.12
2013,09,28,09,49,997.12
2013,09,28,09,50,997.12
2013,09,28,09,51,997.12
2013,09,28,09,52,997.12
2013,09,28,09,53,997.12
2013,09,28,09,54,997.12
2013,09,28,09,55,997.12
2013,09,28,09,56,997.12
2013,09,28,09,57,997.12
2013,09,28,09,58,997.12
2013,09,28,09,59,997.12
2013,09,28,10,00,996.86
2013,09,28,10,01,996.85
2013,09,28,10,02,996.85
2013,09,28,10,03,996.85
2013,09,28,10,04,996.85
2013,09,28,10,05,996.85
2013,09,28,10,06,996.85
2013,09,28,10,07,996.85
2013,09,28,10,08,996.85
2013,09,28,10,09,996.85
2013,09,28,10,10,996.85
2013,09,28,10,11,996.85
2013,09,28,10,12,996.85
2013,09,28,10,13,996.85
2013,09,28,10,14,996.85
2013,09,28,10,15,996.50
2013,09,28,10,16,996.48
2013,09,28,10,17,996.48
2013,09,28,10,18,996.48
2013,09,28,10,19,996.48
2013,09,28,10,20,996.48
2013,09,28,10,21,996.48
2013,09,28,10,22,996.48
2013,09,28,10,23,996.48
2013,09,28,10,24,996.48
2013,09,28,10,25,996.48
2013,09,28,10,26,996.48
2013,09,28,10,27,996.48
2013,09,28,10,28,996.48
2013,09,28,10,29,996.48
2013,09,28,10,30,996.03
2013,09,28,10,31,996.01
2013,09,28,10,32,996.01
2013,09,28,10,33,996.01
2013,09,28,10,34,996.01
2013,09,28,10,35,996.01
2013,09,28,10,36,996.01
2013,09,28,10,37,996.01
2013,09,28,10,38,996.01
2013,09,28,10,39,996.01
2013,09,28,10,40,996.01
2013,09,28,10,41,996.01
2013,09,28,10,42,996.01
2013,09,28,10,43,996.01
2013,09,28,10,44,996.01
2013,09,28,10,45,995.72
2013,09,28,10,46,995.70
2013,09,28,10,47,995.70
2013,09,28,10,48,995.70
2013,09,28,10,49,995.70
2013,09,28,10,50,995.70
2013,09,28,10,51,995.70
2013,09,28,10,52,995.70
2013,09,28,10,53,995.70
2013,09,28,10,54,995.70
2013,09,28,10,55,995.70
2013,09,28,10,56,995.70
2013,09,28,10,57,995.70
2013,09,28,10,58,995.70
2013,09,28,10,59,995.70
2013,09,28,11,00,995.41
2013,09,28,11,01,995.40
2013,09,28,11,02,995.40
2013,09,28,11,03,995.40
2013,09,28,11,04,995.40
2013,09,28,11,05,995.40
2013,09,28,11,06,995.40
2013,09,28,11,07,995.40
2013,09,28,11,08,995.40
2013,09,28,11,09,995.40
2013,09,28,11,10,995.40
2013,09,28,11,11,995.40
2013,09,28,11,12,995.40
2013,09,28,11,13,995.40
2013,09,28,11,14,995.40
2013,09,28,11,15,995.29
2013,09,28,11,16,995.29
2013,09,28,11,17,995.29
2013,09,28,11,18,995.29
2013,09,28,11,19,995.29
2013,09,28,11,20,995.29
2013,09,28,11,21,995.29
2013,09,28,11,22,995.29
2013,09,28,11,23,995.29
2013,09,28,11,24,995.29
2013,09,28,11,25,995.29
2013,09,28,11,26,995.29
2013,09,28,11,27,995.29
2013,09,28,11,28,995.29
2013,09,28,11,29,995.29
2013,09,28,11,30,994.87
2013,09,28,11,31,994.85
2013,09,28,11,32,994.85
2013,09,28,11,33,994.85
2013,09,28,11,34,994.85
2013,09,28,11,35,994.85
2013,09,28,11,36,994.85
2013,09,28,11,37,994.85
2013,09,28,11,38,994.85
2013,09,28,11,39,994.85
2013,09,28,11,40,994.85
2013,09,28,11,41,994.85
2013,09,28,11,42,994.85
2013,09,28,11,43,994.85
2013,09,28,11,44,994.85
2013,09,28,11,45,994.63
2013,09,28,11,46,994.62
2013,09,28,11,47,994.62
2013,09,28,11,48,994.62
2013,09,28,11,49,994.62
2013,09,28,11,50,994.62
2013,09,28,11,51,994.62
2013,09,28,11,52,994.62
2013,09,28,11,53,994.62
2013,09,28,11,54,994.62
2013,09,28,11,55,994.62
2013,09,28,11,56,994.62
2013,09,28,11,57,994.62
2013,09,28,11,58,994.62
2013,09,28,11,59,994.62
2013,09,28,12,00,994.33
2013,09,28,12,01,994.31
2013,09,28,12,02,994.31
2013,09,28,12,03,994.31
2013,09,28,12,04,994.31
2013,09,28,12,05,994.31
2013,09,28,12,06,994.31
2013,09,28,12,07,994.31
2013,09,28,12,08,994.31
2013,09,28,12,09,994.31
2013,09,28,12,10,994.31
2013,09,28,12,11,994.31
2013,09,28,12,12,994.31
2013,09,28,12,13,994.31
2013,09,28,12,14,994.31
2013,09,28,12,15,994.31
2013,09,28,12,16,994.31
2013,09,28,12,17,994.31
2013,09,28,12,18,994.31
2013,09,28,12,19,994.31
2013,09,28,12,20,994.31
2013,09,28,12,21,994.31
2013,09,28,12,22,994.31
2013,09,28,12,23,994.31
2013,09,28,12,24,994.31
2013,09,28,12,25,994.31
2013,09,28,12,26,994.31
2013,09,28,12,27,994.31
2013,09,28,12,28,994.31
2013,09,28,12,29,994.31
2013,09,28,12,30,993.51
2013,09,28,12,31,993.47
2013,09,28,12,32,993.47
2013,09,28,12,33,993.47
2013,09,28,12,34,993.47
2013,09,28,12,35,993.47
2013,09,28,12,36,993.47
2013,09,28,12,37,993.47
2013,09,28,12,38,993.47
2013,09,28,12,39,993.47
2013,09,28,12,40,993.47
2013,09,28,12,41,993.47
2013,09,28,12,42,993.47
2013,09,28,12,43,993.47
2013,09,28,12,44,993.47
2013,09,28,12,45,993.13
2013,09,28,12,46,993.13
2013,09,28,12,47,993.13
2013,09,28,12,48,993.13
2013,09,28,12,49,993.13
2013,09,28,12,50,993.13
2013,09,28,12,51,993.13
2013,09,28,12,52,993.13
2013,09,28,12,53,993.13
2013,09,28,12,54,993.13
2013,09,28,12,55,993.13
2013,09,28,12,56,993.13
2013,09,28,12,57,993.13
2013,09,28,12,58,993.13
2013,09,28,12,59,993.13
2013,09,28,13,00,992.48
2013,09,28,13,01,992.45
2013,09,28,13,02,992.45
2013,09,28,13,03,992.45
2013,09,28,13,04,992.45
2013,09,28,13,05,992.45
2013,09,28,13,06,992.45
2013,09,28,13,07,992.45
2013,09,28,13,08,992.45
2013,09,28,13,09,992.45
2013,09,28,13,10,992.45
2013,09,28,13,11,992.45
2013,09,28,13,12,992.45
2013,09,28,13,13,992.45
2013,09,28,13,14,992.45
2013,09,28,13,15,992.71
2013,09,28,13,16,992.72
2013,09,28,13,17,992.72
2013,09,28,13,18,992.72
2013,09,28,13,19,992.72
2013,09,28,13,20,992.72
2013,09,28,13,21,992.72
2013,09,28,13,22,992.72
2013,09,28,13,23,992.72
2013,09,28,13,24,992.72
2013,09,28,13,25,992.72
2013,09,28,13,26,992.72
2013,09,28,13,27,992.72
2013,09,28,13,28,992.72
2013,09,28,13,29,992.72
2013,09,28,13,30,993.55
2013,09,28,13,31,993.60
2013,09,28,13,32,993.60
2013,09,28,13,33,993.60
2013,09,28,13,34,993.60
2013,09,28,13,35,993.60
2013,09,28,13,36,993.60
2013,09,28,13,37,993.60
2013,09,28,13,38,993.60
2013,09,28,13,39,993.60
2013,09,28,13,40,993.60
2013,09,28,13,41,993.60
2013,09,28,13,42,993.60
2013,09,28,13,43,993.60
2013,09,28,13,44,993.60
2013,09,28,13,45,994.14
2013,09,28,13,46,994.14
2013,09,28,13,47,994.14
2013,09,28,13,48,994.14
2013,09,28,13,49,994.14
2013,09,28,13,50,994.14
2013,09,28,13,51,994.14
2013,09,28,13,52,994.14
2013,09,28,13,53,994.14
2013,09,28,13,54,994.14
2013,09,28,13,55,994.14
2013,09,28,13,56,994.14
2013,09,28,13,57,994.14
2013,09,28,13,58,994.14
2013,09,28,13,59,994.14
2013,09,28,14,00,993.69
2013,09,28,14,01,993.67
2013,09,28,14,02,993.67
2013,09,28,14,03,993.67
2013,09,28,14,04,993.67
2013,09,28,14,05,993.67
2013,09,28,14,06,993.67
2013,09,28,14,07,993.67
2013,09,28,14,08,993.67
2013,09,28,14,09,993.67
2013,09,28,14,10,993.67
2013,09,28,14,11,993.67
2013,09,28,14,12,993.67
2013,09,28,14,13,993.67
2013,09,28,14,14,993.67
2013,09,28,14,15,993.12
2013,09,28,14,16,993.09
2013,09,28,14,17,993.09
2013,09,28,14,18,993.09
2013,09,28,14,19,993.09
2013,09,28,14,20,993.09
2013,09,28,14,21,993.09
2013,09,28,14,22,993.09
2013,09,28,14,23,993.09
2013,09,28,14,24,993.09
2013,09,28,14,25,993.09
2013,09,28,14,26,993.09
2013,09,28,14,27,993.09
2013,09,28,14,28,993.09
2013,09,28,14,29,993.09
2013,09,28,14,30,991.42
2013,09,28,14,31,991.33
2013,09,28,14,32,991.33
2013,09,28,14,33,991.33
2013,09,28,14,34,991.33
2013,09,28,14,35,991.33
2013,09,28,14,36,991.33
2013,09,28,14,37,991.33
2013,09,28,14,38,991.33
2013,09,28,14,39,991.33
2013,09,28,14,40,991.33
2013,09,28,14,41,991.33
2013,09,28,14,42,991.33
2013,09,28,14,43,991.33
2013,09,28,14,44,991.33
2013,09,28,14,45,990.72
2013,09,28,14,46,990.69
2013,09,28,14,47,990.69
2013,09,28,14,48,990.69
2013,09,28,14,49,990.69
2013,09,28,14,50,990.69
2013,09,28,14,51,990.69
2013,09,28,14,52,990.69
2013,09,28,14,53,990.69
2013,09,28,14,54,990.69
2013,09,28,14,55,990.69
2013,09,28,14,56,990.69
2013,09,28,14,57,990.69
2013,09,28,14,58,990.69
2013,09,28,14,59,990.69
2013,09,28,15,00,991.11
2013,09,28,15,01,991.13
2013,09,28,15,02,991.13
2013,09,28,15,03,991.13
2013,09,28,15,04,991.13
2013,09,28,15,05,991.13
2013,09,28,15,06,991.13
2013,09,28,15,07,991.13
2013,09,28,15,08,991.13
2013,09,28,15,09,991.13
2013,09,28,15,10,991.13
2013,09,28,15,11,991.13
2013,09,28,15,12,991.13
2013,09,28,15,13,991.13
2013,09,28,15,14,991.13
2013,09,28,15,15,991.16
2013,09,28,15,16,991.16
2013,09,28,15,17,991.16
2013,09,28,15,18,991.16
2013,09,28,15,19,991.16
2013,09,28,15,20,991.16
2013,09,28,15,21,991.16
2013,09,28,15,22,991.16
2013,09,28,15,23,991.16
2013,09,28,15,24,991.16
2013,09,28,15,25,991.16
2013,09,28,15,26,991.16
2013,09,28,15,27,991.16
2013,09,28,15,28,991.16
2013,09,28,15,29,991.16
2013,09,28,15,30,991.58
2013,09,28,15,31,991.60
2013,09,28,15,32,991.60
2013,09,28,15,33,991.60
2013,09,28,15,34,991.60
2013,09,28,15,35,991.60
2013,09,28,15,36,991.60
2013,09,28,15,37,991.60
2013,09,28,15,38,991.60
2013,09,28,15,39,991.60
2013,09,28,15,40,991.60
2013,09,28,15,41,991.60
2013,09,28,15,42,991.60
2013,09,28,15,43,991.60
2013,09,28,15,44,991.60
2013,09,28,15,45,991.70
2013,09,28,15,46,991.70
2013,09,28,15,47,991.70
2013,09,28,15,48,991.70
2013,09,28,15,49,991.70
2013,09,28,15,50,991.70
2013,09,28,15,51,991.70
2013,09,28,15,52,991.70
2013,09,28,15,53,991.70
2013,09,28,15,54,991.70
2013,09,28,15,55,991.70
2013,09,28,15,56,991.70
2013,09,28,15,57,991.70
2013,09,28,15,58,991.70
2013,09,28,15,59,991.70
2013,09,28,16,00,992.70
2013,09,28,16,01,992.75
2013,09,28,16,02,992.75
2013,09,28,16,03,992.75
2013,09,28,16,04,992.75
2013,09,28,16,05,992.75
2013,09,28,16,06,992.75
2013,09,28,16,07,992.75
2013,09,28,16,08,992.75
2013,09,28,16,09,992.75
2013,09,28,16,10,992.75
2013,09,28,16,11,992.75
2013,09,28,16,12,992.75
2013,09,28,16,13,992.75
2013,09,28,16,14,992.75
2013,09,28,16,15,992.30
2013,09,28,16,16,992.28
2013,09,28,16,17,992.28